Total_Precipitation_Accumulation
0.00 0.01 0.02 0.03 0.05 0.05 0.07 0.15 0.18 0.18 0.17 0.22 0.31 0.39 0.59 0.67 0.76 0.83 0.81 0.96 1.08 1.19 1.54 1.88 2.34 3.14 3.47 3.96 3.90 3.60 3.38 3.28 3.23 3.20 3.22 3.22 3.37 3.56 3.65 3.61 3.40 3.29 3.18 3.18
0.01 0.01 0.01 0.02 0.05 0.05 0.06 0.10 0.13 0.17 0.19 0.25 0.38 0.48 0.67 0.80 0.88 0.93 0.91 1.05 1.05 1.12 1.67 2.23 2.61 3.05 3.25 3.35 3.52 3.78 3.77 3.69 3.50 3.49 3.77 4.18 4.42 4.39 4.40 4.29 4.20 4.03 3.88 3.79
0.01 0.01 0.01 0.02 0.03 0.03 0.04 0.06 0.09 0.17 0.23 0.31 0.46 0.70 0.81 0.90 1.07 1.04 0.93 0.96 1.05 1.21 1.55 2.06 2.52 2.80 3.14 3.45 3.56 3.78 3.83 3.91 4.07 4.24 4.41 4.85 5.15 5.07 4.87 4.44 4.25 4.07 3.79 3.64
0.00 0.00 0.01 0.02 0.02 0.03 0.04 0.04 0.09 0.14 0.20 0.33 0.41 0.74 0.95 1.03 1.13 1.19 1.14 1.07 1.15 1.31 1.54 1.80 2.15 2.36 2.69 2.97 3.23 3.47 3.60 3.82 4.27 4.90 5.18 5.23 5.35 5.23 5.03 4.67 4.31 3.95 3.63 3.39
0.01 0.00 0.01 0.01 0.02 0.03 0.04 0.04 0.06 0.11 0.13 0.31 0.38 0.63 1.10 1.21 1.23 1.29 1.29 1.26 1.35 1.35 1.47 1.59 1.61 1.86 2.27 2.50 2.69 2.98 3.29 3.73 4.40 4.94 5.27 5.47 5.38 5.13 4.90 4.46 4.07 3.74 3.46 3.14
0.01 0.02 0.02 0.03 0.03 0.03 0.04 0.05 0.08 0.12 0.19 0.41 0.37 0.52 1.09 1.37 1.29 1.23 1.26 1.32 1.37 1.32 1.32 1.38 1.41 1.54 1.78 2.03 2.28 2.52 2.97 3.63 4.05 4.46 4.86 4.99 5.00 4.90 4.65 4.22 3.87 3.57 3.26 2.96
0.05 0.04 0.03 0.03 0.04 0.04 0.07 0.11 0.29 0.42 0.49 0.49 0.34 0.60 1.19 1.44 1.46 1.37 1.38 1.52 1.41 1.23 1.24 1.39 1.38 1.46 1.68 1.92 2.26 2.53 2.91 3.40 3.68 3.80 4.02 4.25 4.31 4.24 4.19 4.03 3.70 3.34 2.91 2.51
0.11 0.09 0.04 0.03 0.05 0.07 0.07 0.12 0.37 0.59 0.57 0.53 0.53 1.01 1.48 1.47 1.44 1.37 1.33 1.40 1.42 1.35 1.39 1.42 1.47 1.58 1.81 1.95 2.09 2.30 2.59 3.03 3.20 3.14 3.26 3.47 3.59 3.58 3.47 3.24 2.88 2.55 2.27 2.04
0.15 0.13 0.05 0.04 0.06 0.07 0.10 0.12 0.16 0.31 0.37 0.56 0.89 1.41 1.76 1.78 1.70 1.59 1.46 1.37 1.37 1.35 1.39 1.45 1.47 1.55 1.75 1.87 1.99 2.04 2.11 2.41 2.59 2.56 2.60 2.57 2.54 2.55 2.48 2.33 2.14 1.94 1.74 1.55
0.10 0.13 0.08 0.06 0.07 0.10 0.12 0.15 0.19 0.34 0.55 0.76 1.01 1.55 2.18 2.22 2.00 1.76 1.60 1.38 1.36 1.28 1.27 1.35 1.43 1.43 1.41 1.47 1.61 1.68 1.64 1.76 1.83 1.77 1.80 1.82 1.85 1.93 1.88 1.68 1.57 1.50 1.40 1.27
0.08 0.13 0.12 0.12 0.13 0.17 0.17 0.18 0.20 0.30 0.45 0.71 1.06 1.64 1.93 2.09 1.96 1.76 1.60 1.43 1.26 1.21 1.22 1.26 1.34 1.32 1.20 1.13 1.17 1.32 1.36 1.33 1.40 1.47 1.50 1.43 1.40 1.39 1.39 1.33 1.22 1.20 1.14 1.05
0.13 0.18 0.21 0.20 0.17 0.16 0.19 0.19 0.22 0.40 0.46 0.55 0.95 1.68 1.78 2.01 2.02 1.91 1.73 1.57 1.50 1.39 1.36 1.32 1.43 1.35 1.24 1.17 1.13 1.16 1.23 1.24 1.21 1.18 1.24 1.25 1.18 1.08 1.08 1.07 1.03 0.99 0.98 0.94
0.15 0.27 0.45 0.52 0.42 0.27 0.23 0.23 0.25 0.31 0.44 0.60 1.02 1.77 1.78 1.83 1.94 1.89 1.71 1.66 1.64 1.60 1.61 1.54 1.47 1.33 1.26 1.25 1.17 1.06 1.07 1.09 1.03 0.94 0.95 0.97 0.97 0.91 0.89 0.91 0.91 0.88 0.87 0.84
0.17 0.31 0.55 0.86 0.76 0.46 0.36 0.30 0.30 0.37 0.58 0.69 0.91 1.36 1.63 1.72 1.84 1.89 1.81 1.66 1.60 1.63 1.64 1.54 1.46 1.34 1.25 1.22 1.16 1.12 1.06 0.96 0.88 0.83 0.84 0.84 0.88 0.90 0.86 0.79 0.77 0.77 0.78 0.78
0.24 0.39 0.39 0.41 0.42 0.42 0.39 0.36 0.36 0.42 0.49 0.71 0.94 1.29 1.64 1.69 1.85 2.07 2.06 1.90 1.75 1.71 1.72 1.62 1.54 1.46 1.38 1.33 1.26 1.21 1.11 1.00 0.88 0.82 0.80 0.84 0.90 0.92 0.90 0.86 0.81 0.76 0.73 0.70
0.27 0.39 0.40 0.37 0.34 0.38 0.41 0.43 0.39 0.43 0.52 0.74 1.05 1.47 1.69 1.77 1.84 1.98 2.09 1.98 1.86 1.86 1.92 1.94 1.92 1.83 1.67 1.54 1.44 1.33 1.18 1.05 0.96 0.93 0.90 0.91 0.91 0.87 0.86 0.83 0.80 0.79 0.74 0.71
0.26 0.38 0.50 0.46 0.33 0.52 0.77 0.61 0.55 0.59 0.69 0.87 1.18 1.40 1.47 1.59 1.78 1.85 1.91 2.01 2.00 2.09 2.22 2.26 2.21 2.09 1.90 1.78 1.68 1.55 1.36 1.20 1.13 1.07 1.01 0.95 0.89 0.80 0.76 0.71 0.70 0.74 0.73 0.68
0.28 0.40 0.50 0.55 0.61 1.06 0.98 0.60 0.58 0.73 0.87 0.92 0.99 1.05 1.27 1.49 1.63 1.67 1.80 2.02 2.14 2.16 2.11 2.12 2.08 2.06 1.96 1.84 1.70 1.55 1.37 1.27 1.16 1.07 0.98 0.90 0.82 0.76 0.76 0.75 0.74 0.72 0.69 0.64
0.19 0.38 0.60 0.72 1.01 1.12 1.04 0.71 0.70 0.88 1.14 0.96 0.99 1.00 1.15 1.24 1.42 1.74 1.81 1.94 2.15 2.04 1.92 1.98 2.04 2.04 1.98 1.88 1.67 1.53 1.40 1.23 1.15 1.05 0.88 0.79 0.73 0.69 0.68 0.68 0.68 0.66 0.65 0.63
0.23 0.36 0.71 0.92 1.23 1.43 1.28 0.74 0.61 0.93 1.67 1.27 1.16 1.15 1.13 1.22 1.58 1.74 1.63 1.59 1.68 1.74 1.79 1.92 2.05 2.10 2.03 1.92 1.63 1.47 1.32 1.11 0.97 0.82 0.71 0.69 0.69 0.64 0.58 0.58 0.59 0.60 0.62 0.61
0.60 0.62 0.76 1.02 1.42 1.53 0.93 0.57 0.68 1.33 1.69 1.36 1.28 1.23 1.23 1.34 1.44 1.33 1.25 1.34 1.49 1.66 1.79 1.85 1.88 1.87 1.85 1.77 1.55 1.41 1.26 1.06 0.84 0.68 0.62 0.65 0.62 0.53 0.49 0.53 0.57 0.56 0.53 0.54
0.88 0.99 1.05 1.19 1.55 1.65 0.77 0.62 0.92 1.11 0.95 0.90 0.93 0.96 1.00 1.04 1.05 1.12 1.15 1.19 1.29 1.46 1.64 1.70 1.71 1.70 1.59 1.49 1.36 1.26 1.13 0.90 0.72 0.63 0.61 0.63 0.60 0.42 0.37 0.46 0.49 0.48 0.51 0.50
0.88 0.99 1.17 1.36 1.59 1.22 0.73 0.70 0.71 0.72 0.75 0.73 0.78 0.76 0.79 0.86 0.93 1.07 1.18 1.22 1.26 1.26 1.37 1.40 1.32 1.23 1.22 1.20 1.12 1.02 0.89 0.73 0.63 0.59 0.61 0.60 0.54 0.43 0.35 0.39 0.43 0.44 0.47 0.44
0.99 0.82 1.01 1.20 1.25 0.99 0.73 0.66 0.62 0.55 0.53 0.59 0.72 0.74 0.70 0.70 0.72 0.84 0.93 1.02 1.09 1.08 1.08 1.08 1.04 0.95 0.92 0.93 0.88 0.78 0.65 0.60 0.60 0.61 0.60 0.58 0.53 0.44 0.36 0.36 0.32 0.34 0.37 0.36
0.99 0.97 1.13 1.29 1.29 1.08 0.89 0.73 0.62 0.57 0.57 0.62 0.65 0.61 0.56 0.52 0.53 0.57 0.68 0.76 0.83 0.82 0.78 0.77 0.81 0.77 0.69 0.68 0.68 0.63 0.55 0.52 0.59 0.57 0.51 0.48 0.42 0.40 0.39 0.32 0.22 0.21 0.23 0.22
0.84 0.95 1.20 1.37 1.18 1.10 0.97 0.75 0.60 0.57 0.56 0.52 0.49 0.45 0.47 0.46 0.46 0.49 0.57 0.64 0.68 0.66 0.64 0.66 0.70 0.66 0.61 0.59 0.57 0.52 0.44 0.43 0.52 0.54 0.49 0.43 0.37 0.36 0.33 0.34 0.26 0.17 0.15 0.14